Chatham, MA

11:49 PM EDT on March 28, 2017 (GMT -0400)
Chatham Municipal

Weather History for KCQX - February, 2014

Change the Weather History Date:

Sunday, February 16, 2014

  Actual Average Record
Temperature  
Mean Temperature 28 °F -  
Max Temperature 33 °F 37 °F 57 °F (1976)
Min Temperature 24 °F 25 °F 0 °F (2015)
Degree Days  
Heating Degree Days 36    
Moisture  
Dew Point 24 °F    
Average Humidity 83    
Maximum Humidity 100    
Minimum Humidity 69    
Precipitation  
Precipitation 0.22 in - - ()
Sea Level Pressure  
Sea Level Pressure 29.60 in    
Wind  
Wind Speed 13 mph (WNW)    
Max Wind Speed 21 mph    
Max Gust Speed 40 mph    
Visibility 6 miles    
Events Fog , Snow    
Averages and records for this station are not official NWS values.
T = Trace of Precipitation, MM = Missing Value Source: NWS Daily Summary

Daily Weather History Graph

Daily Weather History Graph

Search for Another Location

Airport or City:

Trip Planner

Search our weather history database for the weather conditions in past years. The results will help you decide how hot, cold, wet, or windy it might be!

Date:

Astronomy

Feb. 16, 2014 Rise Set
Actual Time 6:34 AM EST 5:14 PM EST
Civil Twilight 6:05 AM EST 5:43 PM EST
Nautical Twilight 5:33 AM EST 6:15 PM EST
Astronomical Twilight 5:00 AM EST 6:47 PM EST
Moon 7:10 PM EST (2/16) 7:00 AM EST (2/16)
Length of Visible Light 11h 37m
Length of Day
10h 40m
Full, 97% of the Moon is Illuminated
Feb 16
Full
Feb 22
Last Quarter
Mar 1
New
Mar 8
First Quarter
Mar 16
Full

Hourly Weather History & Observations

Time (EST) Temp. Windchill Dew Point Humidity Pressure Visibility Wind Dir Wind Speed Gust Speed Precip Events Conditions
12:01 AM 33.1 °F 23.9 °F 32.0 °F 96% 29.25 in 0.5 mi NW 12.7 mph 40.3 mph 0.02 in Fog , Snow Snow
12:11 AM 32.0 °F 20.8 °F 32.0 °F 100% 29.26 in 0.5 mi NNW 17.3 mph 31.1 mph 0.06 in Fog , Snow Snow
12:48 AM 32.0 °F 21.2 °F 30.2 °F 93% 29.28 in 0.5 mi NW 16.1 mph 34.5 mph 0.16 in Fog , Snow Snow
12:52 AM 32.0 °F 21.6 °F 30.9 °F 96% 29.29 in 0.5 mi NNW 15.0 mph 35.7 mph 0.16 in Fog , Snow Snow
1:09 AM 30.9 °F 18.7 °F 30.9 °F 100% 29.31 in 1.0 mi NW 19.6 mph 38.0 mph 0.01 in Snow Light Snow
1:17 AM 30.9 °F 18.7 °F 30.0 °F 96% 29.32 in 0.8 mi NNW 19.6 mph 40.3 mph 0.02 in Snow Light Snow
1:52 AM 30.9 °F 18.4 °F 30.0 °F 96% 29.36 in 0.8 mi NW 20.7 mph 38.0 mph 0.05 in Snow Light Snow
2:10 AM 30.9 °F 18.7 °F 30.0 °F 96% 29.37 in 1.0 mi NW 19.6 mph 36.8 mph 0.01 in Snow Light Snow
2:38 AM 30.9 °F 20.7 °F 28.9 °F 92% 29.40 in 2.0 mi NW 13.8 mph 33.4 mph 0.01 in Snow Light Snow
2:49 AM 30.2 °F 20.2 °F 28.4 °F 93% 29.40 in 4.0 mi NNW 12.7 mph 35.7 mph 0.01 in Snow Light Snow
2:52 AM 30.9 °F 20.2 °F 28.9 °F 92% 29.42 in 4.0 mi NW 15.0 mph 33.4 mph 0.01 in Snow Light Snow
2:55 AM 30.9 °F 20.7 °F 28.9 °F 92% 29.41 in 2.5 mi NW 13.8 mph 32.2 mph 0.00 in Snow Light Snow
3:04 AM 30.9 °F 19.8 °F 28.9 °F 92% 29.42 in 1.5 mi NW 16.1 mph 34.5 mph 0.00 in Snow Light Snow
3:26 AM 30.0 °F 20.5 °F 28.0 °F 92% 29.45 in 2.5 mi WNW 11.5 mph 38.0 mph 0.00 in Snow Light Snow
3:37 AM 30.0 °F 18.7 °F 27.0 °F 88% 29.46 in 2.5 mi NW 16.1 mph 36.8 mph 0.00 in Snow Light Snow
3:52 AM 28.9 °F 16.9 °F 25.0 °F 85% 29.49 in 8.0 mi NW 17.3 mph 29.9 mph 0.00 in   Overcast
4:17 AM 28.0 °F 14.6 °F 21.9 °F 78% 29.50 in 8.0 mi NW 20.7 mph 34.5 mph N/A   Mostly Cloudy
4:52 AM 27.0 °F 15.2 °F 21.0 °F 78% 29.54 in 10.0 mi WNW 15.0 mph 29.9 mph N/A   Partly Cloudy
5:52 AM 25.0 °F 14.2 °F 19.0 °F 78% 29.59 in 10.0 mi WNW 11.5 mph 25.3 mph N/A   Clear
6:52 AM 24.1 °F 13.1 °F 18.0 °F 77% 29.65 in 10.0 mi WNW 11.5 mph 24.2 mph N/A   Clear
7:52 AM 24.1 °F 12.5 °F 18.0 °F 77% 29.69 in 10.0 mi WNW 12.7 mph 28.8 mph N/A   Clear
8:52 AM 25.0 °F 14.8 °F 18.0 °F 75% 29.72 in 10.0 mi WNW 10.4 mph 26.5 mph N/A   Clear
9:52 AM 26.1 °F 15.6 °F 19.0 °F 75% 29.75 in 10.0 mi WNW 11.5 mph 28.8 mph N/A   Clear
10:52 AM 28.0 °F 20.0 °F 19.9 °F 72% 29.77 in 10.0 mi West 8.1 mph 21.9 mph N/A   Clear
11:52 AM 28.9 °F 20.4 °F 21.9 °F 75% 29.78 in 10.0 mi West 9.2 mph 19.6 mph N/A   Clear
12:52 PM 30.0 °F 23.2 °F 21.9 °F 72% 29.78 in 10.0 mi West 6.9 mph 18.4 mph N/A   Clear
1:52 PM 30.9 °F 24.3 °F 24.1 °F 76% 29.78 in 10.0 mi Variable 6.9 mph - N/A   Partly Cloudy
2:52 PM 30.9 °F 23.5 °F 21.9 °F 69% 29.81 in 10.0 mi West 8.1 mph - N/A   Clear
3:52 PM 30.0 °F 24.1 °F 21.0 °F 69% 29.82 in 10.0 mi Variable 5.8 mph - N/A   Clear
4:52 PM 28.0 °F 21.7 °F 19.9 °F 72% 29.84 in 10.0 mi West 5.8 mph - N/A   Clear
5:52 PM 26.1 °F 20.5 °F 19.9 °F 78% 29.86 in 10.0 mi WSW 4.6 mph - N/A   Mostly Cloudy
6:52 PM 26.1 °F 21.9 °F 19.0 °F 75% 29.88 in 10.0 mi West 3.5 mph - N/A   Mostly Cloudy
7:52 PM 26.1 °F 21.9 °F 19.9 °F 78% 29.89 in 10.0 mi Variable 3.5 mph - N/A   Overcast
8:52 PM 26.1 °F 20.5 °F 19.0 °F 75% 29.90 in 10.0 mi Variable 4.6 mph - N/A   Overcast
9:52 PM 26.1 °F 19.4 °F 19.0 °F 75% 29.92 in 10.0 mi Variable 5.8 mph - N/A   Overcast
10:52 PM 25.0 °F 18.1 °F 18.0 °F 75% 29.93 in 10.0 mi West 5.8 mph - N/A   Overcast
11:52 PM 25.0 °F 18.1 °F 17.1 °F 72% 29.94 in 10.0 mi WNW 5.8 mph - N/A   Overcast